Weather observations for the past three days for
Ormond Beach, Ormond Beach Municipal Airport
Imperial (Metric)
Date Time (edt) Wind (mph) Vis. (mi.) Weather Sky Cond. Temperature (ºF) Relative Humidity Wind Chill (°F) Heat Index (°F) Pressure Precipitation (in)
Air Dwpt 6 hour altimeter (in) sea level (mb) 1 hr 3 hr 6 hr
Max. Min.
08 07:50 SW 5 5.00 Fog/Mist BKN019 73.4 73.4 100% 29.97 0.0
08 06:50 SW 5 5.00 Fog/Mist CLR 71.6 71.6 100% 29.95 0.0
07 18:50 NE 9 10.00 Fair CLR 87.8 69.8 55% 93 29.88 0.0
07 17:50 N 12 G 17 10.00 Fair CLR 89.6 69.8 52% 95 29.88 0.0
07 16:50 W 16 G 23 10.00 Fair CLR 96.8 62.6 32% 98 29.89 0.0
07 15:50 W 16 G 23 10.00 A Few Clouds FEW070 96.8 66.2 37% 100 29.9 0.0
07 14:50 W 12 G 16 10.00 A Few Clouds FEW060 95 69.8 44% 101 29.92 0.0
07 13:50 SW 12 G 17 10.00 Fair CLR 93.2 68 44% 98 29.96 0.0
07 12:50 SW 13 10.00 Fair CLR 91.4 71.6 52% 99 29.96 0.0
07 11:50 SW 13 10.00 Fair CLR 89.6 71.6 55% 96 29.97 0.0
07 10:50 SW 13 10.00 Fair CLR 86 71.6 62% 92 29.98 0.0
07 09:50 S 14 G 20 10.00 Fair CLR 82.4 71.6 70% 87 29.99 0.0
07 08:50 S 12 G 17 10.00 Fair CLR 78.8 69.8 74% 81 30 0.0
07 07:50 S 8 10.00 Fair CLR 75.2 71.6 89% 75 30 0.0
07 06:50 S 8 7.00 Fair CLR 71.6 68 88% 29.99 0.0
06 18:50 SE 12 G 20 7.00 Fair CLR 82.4 66.2 58% 85 29.98 0.0
06 17:50 SE 12 G 20 7.00 Fair CLR 84.2 66.2 55% 87 29.99 0.0
06 16:50 SE 12 G 20 7.00 Fair CLR 84.2 68 58% 87 29.99 0.0
06 15:50 E 9 7.00 Fair CLR 84.2 73.4 70% 91 30 0.0
06 14:50 E 13 7.00 Fair CLR 84.2 71.6 66% 90 30.02 0.0
06 13:50 SE 12 7.00 Fair CLR 84.2 73.4 70% 91 30.03 0.0
06 12:50 S 8 10.00 Fair CLR 86 66.2 52% 88 30.05 0.0
06 11:50 S 8 10.00 Fair CLR 84.2 64.4 51% 86 30.06 0.0
06 09:50 S 9 7.00 Fair CLR 80.6 71.6 74% 85 30.05 0.0
06 08:50 S 9 7.00 Fair CLR 77 69.8 79% 79 30.04 0.0
06 07:50 Calm 7.00 Fair CLR 66.2 64.4 94% 30.03 0.0
06 06:50 Calm 7.00 Fair CLR 60.8 60.8 100% 30.01 0.0
05 18:50 E 9 10.00 Fair CLR 77 59 54% 79 30 0.0
05 17:50 E 9 10.00 Fair CLR 78.8 57.2 48% 80 30 0.0
05 16:50 E 13 10.00 Fair CLR 78.8 55.4 45% 79 30 0.0
05 15:50 E 13 10.00 Fair CLR 78.8 59 51% 80 30.01 0.0
05 14:50 E 8 10.00 A Few Clouds FEW075 78.8 59 51% 80 30.03 0.0
05 13:50 E 8 10.00 A Few Clouds FEW075 78.8 62.6 58% 80 30.04 0.0
05 12:50 E 8 10.00 Fair CLR 78.8 59 51% 80 30.05 0.0
05 11:50 NE 8 10.00 Fair CLR 78.8 60.8 54% 80 30.05 0.0
05 10:50 E 12 10.00 Fair CLR 77 62.6 61% 79 30.05 0.0
05 09:50 SE 7 10.00 Fair CLR 77 62.6 61% 79 30.03 0.0
05 08:50 SE 5 10.00 Fair CLR 75.2 64.4 69% 77 30.03 0.0
Date Time (edt) Wind (mph) Vis. (mi.) Weather Sky Cond. Air Dwpt Max. Min. Relative Humidity Wind Chill (°F) Heat Index (°F) altimeter (in) sea level (mb) 1 hr 3 hr 6 hr
6 hour
Temperature (ºF) Pressure Precipitation (in)